Hourly Weather Roundup
Issued by NWS Central Illinois

Home | Current Version | Previous Version | Text Only | Print | Product List | Glossary On
Versions: 1 2 3 4 5 6 7 8 9 10 11 12 13 14 15 16 17 18 19 20 21 22 23 24 25 26 27 28 29 30 31 32 33 34 35 36 37 38 39 40 41 42 43 44 45 46 47 48 49 50
000
NZUS43 KILX 290310
HWRILX

Area Weather Roundup
National Weather Service Lincoln IL
1000 PM CDT FRI APR 28 2017

NOTE:  "FAIR" indicates few or no clouds below 12,000 feet, with
       no sigificant weather and/or obstructions to visibility.


CITY           SKY/WX    TMP DP  RH WIND       PRES   REMARKS
Bloomington    CLOUDY    55  53  93 E3        29.93R
Champaign      CLOUDY    55  53  93 E7        29.90R FOG
Danville       DRIZZLE   55  54  97 N5        29.88S
Decatur        CLOUDY    56  56 100 E3        29.89R
Effingham      CLOUDY    57  57 100 CALM      29.89S
Flora          DRIZZLE   58  58  97 N5        29.86F
Galesburg      CLOUDY    52  52  98 N10       29.94R FOG
Jacksonville   CLOUDY    55  54  98 NE6       29.90R FOG
Lacon          CLOUDY    56  54  92 CALM      29.92R
Lawrenceville  CLOUDY    59  58  96 VRB6      29.87R FOG
Litchfield     CLOUDY    56  55  99 CALM      29.87R FOG
$$


CITY           SKY/WX    TMP DP  RH WIND       PRES   REMARKS
Lincoln        CLOUDY    56  56  97 CALM      29.91R FOG
Macomb         CLOUDY    57  55  92 SE7       29.95R
Mattoon        LGT RAIN  55  55 100 CALM      29.89R
Mt Carmel AP   CLOUDY    59  57  92 NE6       29.86R
Olney-Noble AP RAIN      57  57 100 CALM      29.87R
Paris AP       CLOUDY    55  55  99 E3        29.92R THUNDER FOG
Peoria         CLOUDY    58  55  90 CALM      29.91R
Pontiac        CLOUDY    56  55  99 E6        29.93R
Rantoul        CLOUDY    56  55  98 CALM      29.91S FOG
Robinson       CLOUDY    56  56  99 NE5       29.90R FOG
Springfield    CLOUDY    57  55  93 N7        29.90R FOG
Taylorville    CLOUDY    55  55  98 NE5       29.87F
$$

...REGIONAL REPORTS...


CITY           SKY/WX    TMP DP  RH WIND       PRES   REMARKS
Chicago O`Hare CLOUDY    50  40  68 NE13      29.97R
Kankakee       CLOUDY    55  51  87 CALM      29.92F
Moline         CLOUDY    49  46  90 N6        29.96R
Mount Sterling CLOUDY    55  55  99 CALM      29.91R FOG
Mount Vernon   CLOUDY    58  58 100 NE5       29.86R FOG
Pittsfield     CLOUDY    56  56  99 N3        29.91R FOG
Quincy         CLOUDY    56  55  97 CALM      29.91R
Rockford       CLOUDY    48  44  86 NE15      29.99R
$$


CITY           SKY/WX    TMP DP  RH WIND       PRES   REMARKS
Burlington     CLOUDY    51  50  96 N9        29.95R FOG
Cedar Rapids   CLOUDY    43  43 100 N10       29.99R
Des Moines     CLOUDY    45  38  76 NE13      30.01R
Kirksville     CLOUDY    45  31  58 N10       29.95R HAZE
Ottumwa        CLOUDY    45  44  97 N10       29.98R
St Louis       CLOUDY    60  56  86 SE5       29.87R
$$


CITY           SKY/WX    TMP DP  RH WIND       PRES   REMARKS
Terre Haute    LGT RAIN  57  55  93 NE5       29.91R FOG
Evansville     CLOUDY    72  68  87 MISG      29.82R THUNDER
Indianapolis   LGT RAIN  57  55  93 E7        29.90R
Lafayette      LGT RAIN  55  54  96 N6        29.93R FOG
Madison        CLOUDY    45  41  86 N8        30.02R
Milwaukee      DRIZZLE   45  43  93 N8        30.00R
$$






USA.gov is the U.S. government's official web portal to all federal, state and local government web resources and services.